Location: Gerlach
(40.6516°N, 119.3568°W)
Time: 09:14:05
(UTC-08:00)

S-56A Canister/Altair - Visible Passes

Search period start: 07 February 2023 00:00
Search period end: 17 February 2023 00:00
Orbit: 639 x 2493 km, 38.8° (Epoch: 06 February)

Date Brightness Start Highest point End Pass type
(mag) Time Alt. Az. Time Alt. Az. Time Alt. Az.
13 Feb 9.9 06:10:21 10° SSW 06:14:49 20° SSE 06:18:31 10° ESE visible
14 Feb 10.0 05:37:37 10° SSW 05:42:09 19° SSE 05:45:52 10° ESE visible
15 Feb 10.2 05:04:52 10° S 05:09:26 18° SSE 05:13:11 10° ESE visible
16 Feb 10.3 04:32:07 10° S 04:36:41 17° SSE 04:40:27 10° ESE visible
